Regional Weather Roundup
Issued by NWS State College, PA

Home | Current Version | Previous Version | Text Only | Print | Product List | Glossary Off
Versions: 1 2 3 4 5 6 7 8 9 10 11 12 13 14 15 16 17 18 19 20 21 22 23 24 25 26 27 28 29 30 31 32 33 34 35 36 37 38 39 40 41 42 43 44 45 46 47 48 49 50

000
ASUS41 KCTP 250003
RWRCTP

REGIONAL WEATHER ROUNDUP
NATIONAL WEATHER SERVICE STATE COLLEGE PA
700 PM EST WED DEC 24 2014

Note: "fair" indicates few or no clouds below 12,000 feet with no
significant weather and/or obstructions to visibility.

* = STATION THAT DOES NOT REPORT PRECIPITATION /E.G. RAIN...SNOW...ETC/
    THUNDER OR FOG.

PAZ002>004-007>009-013>016-020>023-029>032-250100-
WESTERN PENNSYLVANIA

CITY           SKY/WX    TMP DP  RH WIND       PRES   REMARKS
ERIE           CLOUDY    57  49  74 S14G22    29.28F
MEADVILLE      CLOUDY    54  48  80 VRB5      29.31F
FRANKLIN*      CLOUDY    52  46  82 SE13G20   29.37F
NEW CASTLE       N/A     57  53  86 SE6       29.34F
BEAVER COUNTY  NOT AVBL
BUTLER*        CLOUDY    54  48  82 SE9       29.39F
PITTSBURGH INT CLOUDY    57  52  83 SE8       29.36F
PITTSBURGH     CLOUDY    56  48  74 SE8       29.37F
INDIANA*       CLOUDY    54  46  76 SE8G15    29.47F
LATROBE        MOCLDY    57  48  72 CALM      29.43F
WASHINGTON CO* NOT AVBL
$$

PAZ004>006-010>012-017>019-024>028-033>037-041-042-045-046-049>053-250100-
CENTRAL PENNSYLVANIA

CITY           SKY/WX    TMP DP  RH WIND       PRES   REMARKS
BRADFORD       CLOUDY    47  45  93 SE12G20   29.44F
DUBOIS         CLOUDY    47  45  93 SE12      29.44F
CLEARFIELD     CLOUDY    47  46  97 CALM      29.49R
JOHNSTOWN      CLOUDY    48  45  89 S16       29.47F
ALTOONA        CLOUDY    46  46 100 CALM      29.52F
STATE COLLEGE  CLOUDY    48  46  93 W7        29.52R
WILLIAMSPORT   CLOUDY    50  47  89 E8        29.51F
SELINSGROVE    FOG       47  46  97 CALM      29.56S VSB 3/4
FT INDIANTOWN  FOG       49  49  99 E1        29.59S VSB 1/2
CAPITAL CITY   FOG       48  48 100 SE3       29.59F VSB 1/2
HARRISBURG     FOG       47  46  97 CALM      29.59R VSB 1/4
YORK           CLOUDY    50  49  96 SW3       29.59S
$$

PAZ038>040-043-044-047-048-054-055-060>062-067>071-250100-
EASTERN PENNSYLVANIA

CITY           SKY/WX    TMP DP  RH WIND       PRES   REMARKS
SCRANTON       CLOUDY    51  49  92 CALM      29.55S
MOUNT POCONO   FOG       48  47  96 SW6       29.58F VSB 1/4
ALLENTOWN      CLOUDY    51  49  92 NE5       29.59S FOG
QUAKERTOWN*    NOT AVBL
READING        CLOUDY    50  50 100 CALM      29.59R FOG
LANCASTER      CLOUDY    54  53  97 S5        29.60F FOG
COATESVILLE    FOG       57  57 100 S8        29.62R VSB 1/2
POTTSTOWN      CLOUDY    54  54 100 CALM      29.61F FOG
BLUE BELL      CLOUDY    61  59  94 SW8       29.60S
DOYLESTOWN     CLOUDY    56  56 100 S6        29.59F
WILLOW GROVE   NOT AVBL
NORTH PHILA    CLOUDY    64  59  83 SW8       29.61F
PHILADELPHIA   CLOUDY    62  59  90 SW14      29.62F
$$



USA.gov is the U.S. government's official web portal to all federal, state and local government web resources and services.